Wind_Speed
25 23 21 22 22 21 20 16 13 13 13 13 14 14 15 15 15 17 20 23 22 22
27 26 24 21 21 21 20 18 16 16 15 14 15 17 17 16 16 18 20 18 19 21
29 26 25 24 24 22 21 20 20 19 18 18 18 18 16 17 20 22 19 18 18 18
32 30 27 25 26 26 23 22 22 20 19 19 20 17 17 20 20 20 19 18 19 18
33 32 31 27 25 25 26 24 24 23 24 22 19 18 21 19 17 19 19 18 18 18
34 33 31 29 26 24 23 24 25 25 25 21 21 22 18 16 17 18 17 18 19 20
34 30 27 27 25 21 19 20 20 20 20 17 16 15 16 17 16 15 18 21 23 23
26 27 27 25 21 17 15 15 14 13 15 17 19 17 16 15 15 17 18 22 22 21
29 28 24 20 17 16 14 12 9 10 14 15 18 17 14 16 16 16 17 17 17 17
32 30 23 23 23 25 21 16 15 4 14 22 19 16 16 16 16 16 16 18 19 21
33 29 30 29 27 28 26 28 20 15 29 25 24 19 16 15 14 14 16 18 18 19
34 33 34 31 27 27 29 24 30 18 24 20 20 18 14 14 15 15 16 16 17 20
32 32 35 29 29 29 28 23 15 11 12 13 11 12 17 16 16 19 21 19 18 19
29 30 32 30 29 27 19 20 10 10 8 10 14 17 17 18 18 22 23 24 24 23
Wind_Direction
235 233 232 229 232 236 235 231 238 242 250 268 277 285 298 292 283 292 307 313 314 311
237 236 235 232 234 240 238 232 241 247 253 261 276 280 290 293 299 307 314 320 314 313
239 240 240 236 235 238 239 240 247 254 262 270 278 281 282 290 305 303 305 303 304 306
241 241 243 244 242 239 241 245 250 257 263 275 276 278 285 297 297 296 305 303 302 301
241 242 243 245 248 247 245 246 252 261 268 274 271 277 289 287 288 296 298 302 304 308
241 241 244 247 251 254 253 253 258 265 268 266 273 277 276 276 285 293 301 308 310 310
241 239 239 246 252 258 262 258 260 265 270 270 271 268 273 277 284 295 306 308 308 306
238 243 237 242 249 257 248 245 245 252 257 267 272 268 269 272 286 299 304 306 305 305
235 238 233 233 233 225 221 227 243 282 276 266 264 260 264 279 284 294 306 317 320 317
236 237 222 217 215 207 207 200 200 207 301 284 265 264 272 278 290 303 320 323 318 315
231 225 209 210 213 214 217 214 203 248 238 257 264 267 269 282 296 306 316 318 321 320
223 214 206 210 219 224 228 212 301 287 219 238 249 260 273 283 286 294 299 312 320 323
217 209 208 212 220 213 221 284 286 224 224 233 246 266 268 271 278 284 296 304 307 311
206 201 208 215 226 235 253 271 197 224 241 251 263 268 273 280 284 288 292 297 298 300
Height
1539 1542 1544 1547 1549 1551 1553 1555 1556 1557 1558 1557 1557 1556 1555 1553 1552 1552 1552 1550 1548 1547
1534 1537 1540 1542 1545 1547 1549 1551 1553 1554 1554 1553 1553 1552 1551 1550 1550 1549 1548 1547 1545 1543
1528 1532 1534 1538 1540 1543 1546 1548 1550 1551 1551 1551 1550 1549 1548 1548 1547 1545 1545 1543 1541 1539
1522 1526 1530 1534 1536 1538 1542 1545 1546 1547 1548 1548 1548 1547 1547 1546 1544 1542 1540 1539 1537 1537
1517 1521 1524 1527 1531 1535 1539 1542 1543 1544 1545 1545 1546 1545 1544 1542 1540 1538 1537 1535 1534 1534
1510 1514 1520 1525 1528 1532 1536 1539 1541 1541 1542 1542 1542 1541 1540 1538 1537 1535 1534 1532 1529 1528
1503 1510 1515 1520 1525 1530 1533 1535 1537 1539 1541 1541 1541 1540 1538 1536 1535 1533 1532 1530 1527 1524
1499 1504 1510 1516 1522 1525 1526 1528 1529 1534 1537 1540 1538 1535 1535 1534 1532 1530 1528 1529 1526 1522
1494 1500 1506 1511 1514 1516 1518 1521 1528 1535 1536 1530 1535 1530 1530 1532 1530 1527 1524 1523 1522 1520
1488 1494 1500 1503 1502 1505 1509 1513 1513 1519 1528 1532 1530 1528 1527 1526 1527 1525 1521 1517 1516 1515
1480 1486 1488 1493 1497 1499 1503 1501 1497 1499 1514 1521 1525 1524 1521 1521 1521 1521 1518 1514 1512 1510
1470 1475 1482 1487 1494 1499 1502 1505 1501 1499 1501 1510 1515 1516 1516 1517 1515 1516 1515 1510 1507 1506
1462 1470 1477 1483 1487 1493 1494 1499 1499 1500 1502 1507 1510 1512 1513 1511 1511 1510 1508 1506 1503 1500
1459 1469 1474 1476 1483 1488 1493 1497 1500 1502 1506 1505 1507 1507 1506 1505 1503 1504 1501 1499 1498 1495